Location: Newark
(41.6500°N, 71.4833°W)
Time: 01:46:44
(UTC+00:00)

A-11 Canister half - Pass Details

Date: 23 January 2020
Orbit: 1517 x 1683 km, 47.2° (Epoch: 19 February)

Event Time Altitude Azimuth Distance (km) Brightness Sun altitude
Rises 03:19:01 0° 203° (SSW) 4,758 - -59.6°
Reaches altitude 10° 03:22:28 10° 195° (SSW) 3,752 - -60.1°
Maximum altitude 03:30:43 35° 134° (SE) 2,279 - -61.3°
Drops below altitude 10° 03:38:49 10° 72° (ENE) 3,687 - -62.3°
Sets 03:42:09 0° 65° (ENE) 4,665 - -62.7°
